CHINASAT 12 (ZX 12)

Last updated on Jan. 17, 2021, 6:29 a.m. UTC

1 39017U 12067A   21016.78313318 -.00000211  00000-0  00000-0 0  9995
2 39017   0.0156  81.2853 0002801 217.0289 187.5146  1.00273001 29682
UTC
Height (km)
Latitude
Longitude
Inclination
Orbital Period
UTC large
Height (km)
Speed (km/s)
/
Latitude / Longitude
Inclination (degrees)
Orbital Period (minutes)
Azimuth
Elevation
Range (km)
Doppler Factor
iOS Compass Heading
iOS Angle

Next 30 passes for location: Hong Kong

Rise time Rise Azimuth (degrees) Set time Set Azimuth (degrees) Duration Max altitude (degrees)

No matching passes for this satellites